CW8374 Weather Reports


Display with metric or nautical units.
time (UTC)temp
F
wind
direction
speed
MPH
gust
MPH
rain 1hr
in
rain 24hr
in
rain mn
in
humidity
%
barometer
mb
20210515121904 53 108 3.0 13.0 0.01 0.33 0.25 65 995.5
20210515121405 53 129 7.0 14.0 0.01 0.33 0.25 66 995.5
20210515120404 53 129 3.0 15.0 0.02 0.33 0.25 65 995.5
20210515114904 52 123 6.0 14.0 0.02 0.32 0.24 65 995.6
20210515114404 53 83 5.0 12.0 0.02 0.32 0.24 65 995.6
20210515110904 52 137 7.0 14.0 0.03 0.32 0.24 65 995.9
20210515110404 52 116 3.0 10.0 0.02 0.31 0.24 65 995.9
20210515103903 52 90 2.0 9.0 0.02 0.31 0.23 65 996.0
20210515103404 53 78 5.0 12.0 0.02 0.31 0.23 65 996.0
20210515101906 52 59 4.0 8.0 0.01 0.30 0.22 65 996.1
20210515101404 52 129 2.0 7.0 0.01 0.30 0.22 65 996.1
20210515100904 52 79 2.0 9.0 0.00 0.29 0.21 65 996.1
20210515094904 52 90 5.0 9.0 0.00 0.29 0.21 65 996.3
20210515093904 51 118 5.0 12.0 0.00 0.29 0.21 65 996.3
20210515093405 51 116 3.0 12.0 0.00 0.29 0.21 65 996.3
20210515091904 51 84 2.0 8.0 0.01 0.29 0.21 66 996.4
20210515091405 51 98 3.0 7.0 0.01 0.29 0.21 66 996.4
20210515090904 51 97 3.0 7.0 0.01 0.29 0.21 67 996.5
20210515090405 51 124 2.0 8.0 0.01 0.29 0.21 67 996.5
20210515084905 51 77 3.0 9.0 0.01 0.29 0.21 66 996.6
20210515084405 51 71 2.0 6.0 0.01 0.29 0.21 67 996.6
20210515081905 50 116 4.0 10.0 0.00 0.28 0.20 67 996.6
20210515081406 50 134 5.0 14.0 0.00 0.28 0.20 67 996.6
20210515080404 51 100 2.0 13.0 0.00 0.28 0.20 67 996.6
20210515074904 51 80 3.0 7.0 0.00 0.28 0.20 68 996.6
20210515073905 50 111 3.0 6.0 0.00 0.28 0.20 68 996.7
20210515073404 50 114 3.0 7.0 0.00 0.28 0.20 68 996.7
20210515071404 50 67 2.0 8.0 0.00 0.28 0.20 68 997.0
20210515070904 50 143 2.0 9.0 0.00 0.28 0.20 68 997.0
20210515070403 50 78 1.0 7.0 0.00 0.28 0.20 69 997.0
20210515064404 49 98 1.0 5.0 0.00 0.28 0.20 69 997.1
20210515063405 49 96 2.0 9.0 0.00 0.28 0.20 69 997.1
20210515061905 48 124 2.0 6.0 0.00 0.28 0.20 69 997.2
20210515061404 48 74 1.0 7.0 0.00 0.28 0.20 69 997.2
20210515060404 48 128 2.0 6.0 0.00 0.28 0.20 69 997.3
20210515054904 48 126 1.0 5.0 0.00 0.28 0.20 69 997.3
20210515053904 48 100 2.0 5.0 0.01 0.28 0.20 69 997.4
20210515053405 48 97 2.0 6.0 0.02 0.28 0.20 69 997.5
20210515050906 47 77 0.0 3.0 0.04 0.28 0.20 69 997.6
20210515050404 47 77 0.0 6.0 0.05 0.28 0.20 69 997.5
20210515044405 48 87 2.0 5.0 0.06 0.28 0.20 69 997.7
20210515043905 48 130 1.0 9.0 0.06 0.28 0.20 69 997.7
20210515041906 47 96 2.0 5.0 0.06 0.24 0.17 69 997.9
20210515041404 47 98 3.0 6.0 0.06 0.24 0.17 69 997.9
20210515040905 47 93 1.0 5.0 0.08 0.24 0.17 69 998.1
20210515034404 48 130 2.0 3.0 0.10 0.22 0.14 69 998.2
20210515033904 48 130 2.0 5.0 0.12 0.22 0.14 69 998.6
20210515033405 48 130 1.0 6.0 0.11 0.21 0.13 69 998.6
20210515024905 48 126 1.0 5.0 0.02 0.13 0.05 66 998.8
20210515023904 49 121 1.0 3.0 0.00 0.10 0.02 65 999.0
20210515021404 49 122 2.0 7.0 0.01 0.10 0.02 65 999.1
20210515020904 49 111 1.0 3.0 0.01 0.10 0.02 65 999.1
20210515020404 49 111 0.0 6.0 0.01 0.10 0.02 65 999.2
20210515014904 49 103 1.0 3.0 0.01 0.10 0.02 65 999.4
20210515014404 49 115 2.0 5.0 0.01 0.10 0.02 65 999.5
20210515013905 49 138 2.0 5.0 0.01 0.10 0.02 65 999.6
20210515011904 49 122 2.0 5.0 0.00 0.09 0.02 65 999.9
20210515010905 49 112 2.0 5.0 0.00 0.09 0.02 65 1000.0
20210515010404 49 109 1.0 6.0 0.00 0.09 0.02 65 1000.0
20210515004905 49 80 2.0 7.0 0.00 0.09 0.02 65 1000.2
20210515003904 49 89 2.0 6.0 0.00 0.09 0.02 65 1000.3
20210515003406 49 113 2.0 5.0 0.00 0.09 0.02 65 1000.3
20210515001904 49 75 2.0 7.0 0.01 0.09 0.02 66 1000.6
20210515001406 49 107 1.0 3.0 0.01 0.09 0.02 66 1000.6
20210515000405 50 91 1.0 6.0 0.02 0.09 0.02 66 1000.8
20210514234904 50 85 2.0 5.0 0.02 0.09 0.02 67 1000.8
20210514233904 50 94 2.0 5.0 0.02 0.09 0.02 67 1000.9
20210514233405 49 104 1.0 3.0 0.02 0.09 0.02 67 1001.1
20210514231906 49 137 0.0 3.0 0.02 0.09 0.01 67 1001.3
20210514231404 49 137 0.0 0.0 0.02 0.09 0.01 67 1001.4
20210514230405 49 138 1.0 3.0 0.01 0.08 0.00 67 1001.5
20210514223904 49 138 0.0 0.0 0.00 0.07 0.07 66 1001.9
20210514223405 49 137 1.0 3.0 0.00 0.07 0.07 66 1001.9
20210514221905 49 138 0.0 0.0 0.01 0.07 0.07 66 1002.0
20210514220904 49 138 0.0 3.0 0.02 0.07 0.07 66 1002.2
20210514220408 49 137 2.0 7.0 0.04 0.07 0.07 66 1002.2
20210514213904 50 152 1.0 6.0 0.06 0.07 0.07 66 1002.3
20210514213406 50 152 4.0 8.0 0.06 0.07 0.07 66 1002.4
20210514211904 50 133 3.0 6.0 0.06 0.06 0.06 65 1002.5
20210514210405 50 158 5.0 9.0 0.03 0.03 0.03 65 1002.8
20210514203904 51 179 4.0 10.0 0.01 0.01 0.01 66 1002.9
20210514203404 52 174 5.0 13.0 0.01 0.01 0.01 66 1002.9
20210514201904 54 200 3.0 14.0 0.00 0.00 0.00 69 1002.8
20210514201405 54 167 1.0 5.0 0.00 0.00 0.00 69 1002.8
20210514200904 54 144 1.0 3.0 0.00 0.00 0.00 69 1002.8
20210514200404 54 142 3.0 6.0 0.00 0.00 0.00 69 1002.8
20210514194404 55 144 2.0 6.0 0.00 0.00 0.00 68 1002.8
20210514193904 55 130 1.0 7.0 0.00 0.00 0.00 68 1002.8
20210514193404 55 140 3.0 9.0 0.00 0.00 0.00 68 1002.8
20210514191904 55 112 5.0 10.0 0.00 0.00 0.00 67 1002.8
20210514190405 56 148 2.0 12.0 0.00 0.00 0.00 66 1002.9
20210514184404 56 122 3.0 12.0 0.00 0.00 0.00 65 1002.9
20210514183904 57 106 6.0 13.0 0.00 0.00 0.00 65 1002.9
20210514183405 57 124 5.0 9.0 0.00 0.00 0.00 65 1002.9
20210514181905 57 115 3.0 7.0 0.00 0.00 0.00 66 1002.9
20210514181404 57 128 4.0 7.0 0.00 0.00 0.00 66 1003.0
20210514180904 57 117 3.0 6.0 0.00 0.00 0.00 66 1003.0
20210514180404 57 134 5.0 10.0 0.00 0.00 0.00 66 1003.0
20210514174906 58 92 3.0 10.0 0.00 0.00 0.00 65 1003.3
20210514173904 58 108 5.0 12.0 0.00 0.01 0.00 63 1003.3
20210514173405 59 125 5.0 12.0 0.00 0.01 0.00 63 1003.3
20210514171905 61 134 5.0 10.0 0.00 0.01 0.00 62 1003.4
20210514171404 61 160 6.0 12.0 0.00 0.02 0.00 61 1003.5
20210514170905 61 110 4.0 9.0 0.00 0.02 0.00 62 1003.5
20210514170405 61 98 1.0 12.0 0.00 0.02 0.00 62 1003.6
20210514164904 61 137 3.0 12.0 0.00 0.03 0.00 62 1003.8
20210514164404 61 147 3.0 9.0 0.00 0.04 0.00 61 1003.8
20210514163904 61 136 4.0 10.0 0.00 0.05 0.00 63 1003.8
20210514163404 59 75 2.0 7.0 0.00 0.05 0.00 65 1003.9
20210514161904 58 66 3.0 7.0 0.00 0.06 0.00 65 1004.1
20210514161404 58 81 3.0 7.0 0.00 0.06 0.00 67 1004.2
20210514160904 58 68 2.0 7.0 0.00 0.06 0.00 66 1004.4
20210514154406 59 128 3.0 7.0 0.00 0.09 0.00 65 1004.6
20210514153405 59 76 4.0 9.0 0.00 0.09 0.00 66 1004.8
20210514151904 59 69 3.0 10.0 0.00 0.09 0.00 65 1005.0
20210514151404 59 108 3.0 10.0 0.00 0.09 0.00 65 1005.0
20210514150904 59 57 2.0 6.0 0.00 0.09 0.00 66 1005.1
20210514150405 58 69 3.0 13.0 0.00 0.09 0.00 65 1005.1
20210514144904 59 68 2.0 12.0 0.00 0.09 0.00 66 1005.4
20210514144404 59 67 5.0 10.0 0.00 0.09 0.00 65 1005.4
20210514140905 60 130 2.0 10.0 0.00 0.09 0.00 64 1005.9
20210514140404 60 82 4.0 7.0 0.00 0.09 0.00 64 1005.9
20210514134905 60 134 2.0 7.0 0.00 0.09 0.00 63 1006.0
20210514134404 61 71 4.0 10.0 0.00 0.09 0.00 63 1006.0
20210514133405 61 84 2.0 12.0 0.00 0.09 0.00 64 1006.3
20210514131905 63 120 5.0 10.0 0.00 0.09 0.00 62 1006.3
20210514131405 62 75 5.0 10.0 0.00 0.09 0.00 63 1006.3
20210514130904 62 73 3.0 12.0 0.00 0.09 0.00 64 1006.3
20210514130405 61 82 4.0 10.0 0.00 0.09 0.00 64 1006.3
20210514124904 61 108 5.0 10.0 0.00 0.09 0.00 64 1006.4
20210514124404 63 71 5.0 10.0 0.00 0.09 0.00 63 1006.4
20210514123904 63 80 4.0 9.0 0.00 0.09 0.00 63 1006.4
20210514123404 62 75 3.0 12.0 0.00 0.09 0.00 65 1006.4